Precipitable_Water
0.85 0.85 0.83 0.81 0.77 0.75 0.73 0.73 0.73 0.73 0.73 0.73 0.73 0.73 0.73 0.73 0.71 0.71 0.71 0.73 0.73 0.75 0.77 0.79 0.81 0.83 0.83 0.85 0.85 0.85 0.85 0.85 0.83 0.83 0.81 0.81 0.79 0.79 0.77 0.77 0.75 0.75 0.73 0.73 0.73 0.73 0.71 0.67 0.65 0.61 0.60 0.58 0.58 0.58 0.56 0.56 0.56 0.56 0.56 0.58 0.58 0.60 0.60 0.60 0.60 0.61 0.61 0.61 0.60
0.83 0.81 0.81 0.77 0.75 0.75 0.73 0.73 0.73 0.73 0.73 0.73 0.71 0.71 0.71 0.71 0.71 0.71 0.73 0.73 0.75 0.77 0.77 0.79 0.81 0.81 0.81 0.83 0.83 0.83 0.81 0.79 0.79 0.79 0.79 0.77 0.77 0.77 0.75 0.75 0.73 0.73 0.73 0.73 0.73 0.73 0.71 0.71 0.65 0.63 0.60 0.60 0.58 0.58 0.56 0.56 0.56 0.56 0.56 0.56 0.58 0.60 0.60 0.60 0.61 0.61 0.63 0.63 0.61
0.79 0.79 0.79 0.75 0.73 0.73 0.71 0.71 0.69 0.71 0.71 0.71 0.71 0.69 0.69 0.69 0.71 0.71 0.73 0.75 0.75 0.77 0.79 0.79 0.79 0.79 0.79 0.79 0.79 0.77 0.77 0.77 0.77 0.77 0.75 0.75 0.75 0.75 0.75 0.73 0.73 0.73 0.73 0.73 0.73 0.73 0.73 0.71 0.65 0.63 0.60 0.58 0.58 0.56 0.56 0.58 0.58 0.58 0.58 0.58 0.58 0.60 0.60 0.61 0.63 0.63 0.63 0.63 0.63
0.77 0.77 0.75 0.73 0.71 0.69 0.69 0.67 0.67 0.67 0.67 0.67 0.69 0.69 0.69 0.69 0.71 0.71 0.73 0.73 0.75 0.75 0.75 0.75 0.75 0.75 0.75 0.75 0.73 0.73 0.73 0.75 0.75 0.73 0.73 0.73 0.73 0.73 0.73 0.73 0.73 0.73 0.73 0.73 0.73 0.73 0.71 0.69 0.67 0.63 0.60 0.58 0.56 0.56 0.56 0.58 0.60 0.60 0.60 0.58 0.60 0.60 0.60 0.63 0.63 0.65 0.65 0.65 0.67
0.73 0.73 0.73 0.69 0.69 0.69 0.67 0.67 0.67 0.65 0.65 0.67 0.67 0.67 0.69 0.69 0.71 0.71 0.71 0.71 0.71 0.71 0.71 0.73 0.73 0.73 0.73 0.73 0.73 0.71 0.73 0.73 0.73 0.73 0.73 0.73 0.75 0.75 0.75 0.75 0.73 0.73 0.71 0.71 0.71 0.69 0.69 0.67 0.67 0.63 0.60 0.58 0.56 0.56 0.56 0.58 0.58 0.60 0.60 0.58 0.60 0.60 0.61 0.63 0.65 0.67 0.67 0.67 0.69
0.71 0.71 0.71 0.69 0.69 0.69 0.67 0.67 0.67 0.67 0.65 0.67 0.67 0.67 0.67 0.67 0.69 0.69 0.69 0.67 0.69 0.69 0.71 0.71 0.73 0.73 0.73 0.73 0.71 0.71 0.71 0.71 0.73 0.73 0.73 0.73 0.75 0.75 0.75 0.75 0.73 0.73 0.71 0.69 0.69 0.67 0.65 0.65 0.65 0.63 0.61 0.58 0.56 0.56 0.56 0.56 0.56 0.56 0.58 0.58 0.60 0.61 0.63 0.65 0.67 0.69 0.69 0.69 0.71
0.69 0.69 0.69 0.69 0.69 0.69 0.69 0.69 0.69 0.67 0.67 0.67 0.67 0.65 0.65 0.65 0.67 0.67 0.67 0.67 0.67 0.69 0.71 0.71 0.71 0.71 0.71 0.71 0.71 0.71 0.71 0.71 0.71 0.73 0.73 0.73 0.75 0.75 0.75 0.75 0.73 0.73 0.71 0.69 0.67 0.65 0.65 0.65 0.63 0.63 0.61 0.60 0.58 0.56 0.56 0.56 0.56 0.56 0.58 0.60 0.63 0.65 0.67 0.67 0.69 0.69 0.71 0.71 0.71
0.69 0.69 0.69 0.69 0.69 0.69 0.69 0.69 0.69 0.69 0.69 0.69 0.67 0.65 0.65 0.65 0.65 0.65 0.67 0.67 0.69 0.69 0.69 0.71 0.71 0.71 0.71 0.71 0.71 0.71 0.71 0.71 0.71 0.71 0.73 0.73 0.73 0.73 0.73 0.73 0.73 0.71 0.71 0.69 0.67 0.65 0.65 0.65 0.63 0.63 0.61 0.61 0.60 0.58 0.56 0.56 0.56 0.56 0.60 0.63 0.65 0.67 0.69 0.71 0.71 0.71 0.73 0.73 0.71
0.67 0.67 0.69 0.69 0.69 0.69 0.69 0.71 0.71 0.71 0.69 0.69 0.69 0.67 0.67 0.67 0.67 0.67 0.67 0.67 0.69 0.69 0.71 0.71 0.71 0.71 0.71 0.71 0.71 0.71 0.71 0.71 0.71 0.73 0.73 0.73 0.73 0.73 0.73 0.73 0.73 0.71 0.71 0.71 0.71 0.69 0.65 0.65 0.65 0.65 0.65 0.65 0.61 0.60 0.60 0.58 0.58 0.60 0.61 0.61 0.65 0.69 0.71 0.73 0.75 0.75 0.75 0.77 0.73
0.65 0.65 0.67 0.69 0.69 0.69 0.71 0.71 0.71 0.71 0.71 0.71 0.71 0.71 0.71 0.71 0.71 0.71 0.71 0.71 0.71 0.71 0.71 0.71 0.71 0.71 0.71 0.71 0.71 0.71 0.71 0.73 0.73 0.73 0.73 0.73 0.73 0.73 0.73 0.73 0.73 0.73 0.73 0.73 0.73 0.71 0.69 0.69 0.67 0.67 0.67 0.67 0.67 0.63 0.61 0.60 0.61 0.63 0.63 0.65 0.65 0.69 0.71 0.73 0.77 0.79 0.79 0.79 0.77
0.65 0.65 0.67 0.67 0.69 0.69 0.71 0.71 0.71 0.71 0.73 0.73 0.73 0.73 0.73 0.73 0.73 0.73 0.73 0.73 0.73 0.73 0.71 0.73 0.73 0.71 0.71 0.71 0.71 0.71 0.71 0.73 0.75 0.75 0.75 0.75 0.75 0.75 0.75 0.75 0.73 0.73 0.73 0.75 0.77 0.75 0.75 0.73 0.73 0.71 0.71 0.71 0.69 0.67 0.65 0.63 0.65 0.65 0.65 0.67 0.67 0.67 0.69 0.71 0.75 0.77 0.79 0.77 0.77
0.65 0.65 0.67 0.67 0.69 0.69 0.69 0.69 0.71 0.71 0.73 0.73 0.73 0.73 0.73 0.75 0.75 0.75 0.75 0.75 0.75 0.73 0.73 0.75 0.75 0.73 0.73 0.73 0.73 0.73 0.73 0.75 0.77 0.77 0.77 0.77 0.77 0.77 0.77 0.77 0.77 0.77 0.77 0.81 0.81 0.81 0.79 0.79 0.77 0.77 0.75 0.75 0.73 0.71 0.69 0.69 0.71 0.71 0.71 0.69 0.69 0.69 0.67 0.69 0.71 0.73 0.75 0.75 0.77
0.65 0.67 0.67 0.67 0.69 0.69 0.69 0.69 0.69 0.71 0.71 0.73 0.73 0.73 0.75 0.75 0.77 0.77 0.77 0.75 0.75 0.75 0.75 0.77 0.77 0.77 0.75 0.75 0.75 0.75 0.75 0.75 0.77 0.79 0.81 0.81 0.81 0.81 0.81 0.81 0.81 0.83 0.85 0.85 0.85 0.85 0.85 0.83 0.83 0.81 0.81 0.79 0.77 0.75 0.75 0.79 0.77 0.77 0.75 0.75 0.73 0.71 0.71 0.69 0.71 0.71 0.73 0.75 0.79
0.67 0.67 0.69 0.69 0.69 0.69 0.69 0.69 0.69 0.71 0.71 0.73 0.73 0.75 0.75 0.77 0.77 0.77 0.77 0.77 0.77 0.77 0.79 0.79 0.81 0.81 0.79 0.79 0.77 0.77 0.77 0.79 0.79 0.81 0.83 0.83 0.83 0.83 0.83 0.83 0.85 0.87 0.87 0.89 0.89 0.89 0.89 0.87 0.87 0.87 0.85 0.85 0.83 0.83 0.83 0.87 0.83 0.81 0.81 0.81 0.81 0.79 0.79 0.77 0.75 0.75 0.75 0.75 0.81
0.69 0.69 0.69 0.69 0.71 0.71 0.71 0.71 0.71 0.73 0.73 0.73 0.75 0.77 0.77 0.77 0.79 0.79 0.79 0.77 0.79 0.79 0.81 0.83 0.83 0.83 0.83 0.83 0.81 0.81 0.81 0.81 0.81 0.83 0.85 0.85 0.85 0.87 0.87 0.87 0.89 0.89 0.91 0.91 0.93 0.93 0.93 0.93 0.91 0.91 0.89 0.91 0.91 0.91 0.93 0.95 0.93 0.89 0.87 0.87 0.89 0.89 0.87 0.85 0.81 0.81 0.81 0.77 0.79
0.77 0.73 0.71 0.71 0.71 0.71 0.71 0.73 0.73 0.75 0.75 0.77 0.77 0.79 0.79 0.79 0.81 0.81 0.81 0.81 0.81 0.83 0.83 0.85 0.85 0.85 0.87 0.85 0.85 0.85 0.85 0.85 0.85 0.85 0.85 0.87 0.87 0.89 0.89 0.91 0.91 0.93 0.93 0.95 0.95 0.97 0.97 0.97 0.95 0.95 0.95 0.95 0.97 0.99 1.01 0.99 0.99 0.97 0.95 0.93 0.95 0.95 0.95 0.91 0.89 0.87 0.85 0.81 0.81
0.83 0.83 0.81 0.79 0.77 0.75 0.73 0.73 0.75 0.75 0.77 0.79 0.79 0.81 0.83 0.83 0.83 0.83 0.85 0.85 0.85 0.85 0.87 0.87 0.87 0.89 0.89 0.87 0.87 0.87 0.87 0.85 0.85 0.87 0.87 0.89 0.89 0.91 0.93 0.93 0.95 0.95 0.97 0.99 0.99 0.99 0.99 0.99 0.99 0.99 0.99 0.97 0.97 0.97 0.99 0.99 0.99 0.97 0.97 0.97 0.97 0.97 0.97 0.95 0.93 0.91 0.89 0.85 0.83
0.83 0.85 0.87 0.87 0.87 0.85 0.83 0.81 0.79 0.79 0.79 0.81 0.81 0.83 0.85 0.85 0.87 0.87 0.89 0.89 0.89 0.89 0.89 0.89 0.91 0.91 0.91 0.89 0.89 0.89 0.89 0.87 0.87 0.89 0.89 0.91 0.91 0.93 0.95 0.95 0.97 0.99 0.99 1.01 1.01 1.01 1.01 1.01 1.03 1.03 1.01 1.01 0.99 0.99 0.97 0.97 0.97 0.97 0.97 0.97 0.97 0.97 0.97 0.95 0.95 0.93 0.91 0.89 0.87
0.83 0.85 0.87 0.89 0.89 0.91 0.93 0.93 0.91 0.89 0.87 0.85 0.85 0.85 0.87 0.87 0.87 0.89 0.91 0.93 0.93 0.93 0.93 0.93 0.93 0.93 0.93 0.91 0.91 0.91 0.91 0.89 0.89 0.91 0.91 0.91 0.93 0.95 0.95 0.97 0.99 0.99 1.01 1.01 1.03 1.03 1.03 1.03 1.03 1.03 1.03 1.03 1.03 1.01 0.99 0.97 0.97 0.97 0.97 0.97 0.95 0.95 0.97 0.97 0.97 0.95 0.93 0.93 0.91
0.85 0.85 0.87 0.89 0.89 0.91 0.93 0.95 0.97 0.99 0.99 0.99 0.99 0.97 0.97 0.97 0.97 0.95 0.93 0.93 0.95 0.95 0.95 0.95 0.95 0.95 0.95 0.93 0.93 0.93 0.93 0.93 0.91 0.91 0.93 0.93 0.93 0.95 0.95 0.97 0.99 1.01 1.01 1.03 1.03 1.03 1.03 1.03 1.03 1.03 1.03 1.05 1.07 1.07 1.03 0.99 0.97 0.97 0.97 0.97 0.97 0.97 0.99 1.01 0.99 0.97 0.97 0.95 0.95
0.89 0.89 0.89 0.89 0.91 0.91 0.93 0.93 0.95 0.99 1.01 1.03 1.03 1.03 1.03 1.01 1.01 1.01 0.99 1.01 0.99 0.99 0.97 0.97 0.97 0.97 0.97 0.97 0.95 0.95 0.95 0.95 0.95 0.95 0.95 0.97 0.97 0.97 0.97 0.99 1.01 1.01 1.03 1.03 1.03 1.05 1.05 1.03 1.03 1.03 1.07 1.09 1.11 1.09 1.05 1.01 0.97 0.97 0.97 0.99 0.99 1.01 1.01 1.03 1.01 1.01 0.99 0.99 0.99
0.91 0.91 0.93 0.93 0.93 0.93 0.93 0.95 0.95 0.97 0.99 0.99 1.01 1.01 1.01 0.99 0.99 0.99 1.01 1.03 1.03 1.03 1.01 1.01 0.99 0.99 0.99 0.99 0.99 0.99 0.99 0.99 0.99 0.99 0.99 1.01 0.99 0.99 0.99 1.01 1.01 1.01 1.01 1.03 1.03 1.05 1.05 1.05 1.05 1.07 1.09 1.11 1.11 1.09 1.07 1.05 1.01 0.99 0.99 1.01 1.03 1.03 1.05 1.05 1.03 1.03 1.01 1.01 1.01
0.93 0.93 0.95 0.95 0.95 0.97 0.97 0.97 0.97 0.97 0.97 0.97 0.99 0.99 0.99 0.99 0.99 0.99 1.01 1.03 1.05 1.07 1.07 1.09 1.09 1.09 1.09 1.07 1.03 1.03 1.01 1.03 1.01 1.01 1.01 1.01 1.01 0.99 0.99 1.01 0.99 0.99 1.01 1.01 1.03 1.05 1.07 1.07 1.07 1.09 1.11 1.11 1.11 1.09 1.07 1.05 1.03 1.01 0.99 1.01 1.05 1.05 1.05 1.05 1.05 1.03 1.03 1.03 1.03
0.87 0.89 0.91 0.95 0.95 0.97 0.97 0.99 0.97 0.97 0.97 0.97 0.97 0.97 0.97 0.97 0.99 0.99 1.01 1.05 1.07 1.09 1.11 1.13 1.13 1.15 1.15 1.15 1.07 1.03 1.03 1.01 1.01 1.01 1.01 0.99 0.99 0.99 0.97 0.97 0.97 0.97 0.99 1.03 1.05 1.07 1.07 1.09 1.09 1.11 1.11 1.11 1.09 1.09 1.07 1.05 1.03 1.03 1.01 1.01 1.03 1.03 1.03 1.03 1.03 1.01 1.01 1.01 1.01
0.83 0.85 0.87 0.87 0.91 0.93 0.95 0.97 0.97 0.97 0.97 0.97 0.97 0.95 0.95 0.95 0.95 0.97 1.01 1.07 1.11 1.13 1.15 1.15 1.15 1.15 1.15 1.15 1.13 1.09 1.03 1.01 0.99 0.97 0.95 0.95 0.95 0.95 0.95 0.97 0.99 1.03 1.05 1.07 1.09 1.09 1.09 1.09 1.11 1.13 1.11 1.05 1.05 1.05 1.07 1.07 1.05 1.03 1.01 1.01 1.01 1.01 1.01 0.99 0.99 0.99 0.99 0.99 0.99
0.81 0.81 0.81 0.83 0.83 0.85 0.87 0.91 0.95 0.97 0.97 0.97 0.97 0.95 0.95 0.95 0.93 0.95 0.99 1.07 1.13 1.17 1.19 1.21 1.17 1.15 1.13 1.11 1.09 1.07 1.05 1.03 0.99 0.99 0.97 0.97 0.97 1.01 1.03 1.05 1.07 1.09 1.11 1.11 1.13 1.13 1.15 1.15 1.13 1.09 1.05 1.01 1.03 1.05 1.05 1.05 1.05 1.03 1.03 1.01 1.01 1.01 0.99 0.95 0.95 0.97 0.97 0.97 0.97
0.77 0.77 0.79 0.79 0.79 0.79 0.81 0.83 0.89 0.93 0.95 0.95 0.95 0.95 0.95 0.95 0.95 0.95 0.99 1.05 1.11 1.17 1.23 1.24 1.21 1.15 1.11 1.07 1.05 1.03 1.03 1.03 1.03 1.03 1.03 1.03 1.05 1.05 1.07 1.09 1.11 1.15 1.17 1.15 1.15 1.17 1.17 1.17 1.11 1.07 1.03 1.01 0.99 1.01 1.03 1.05 1.05 1.05 1.05 1.03 0.99 0.95 0.95 0.95 0.95 0.95 0.95 0.93 0.93
0.73 0.73 0.75 0.75 0.77 0.77 0.77 0.77 0.83 0.87 0.89 0.91 0.93 0.93 0.93 0.95 0.95 0.97 0.97 1.01 1.07 1.15 1.19 1.24 1.23 1.21 1.17 1.09 1.05 1.03 1.01 1.03 1.05 1.05 1.07 1.07 1.07 1.07 1.09 1.11 1.13 1.15 1.17 1.15 1.17 1.17 1.17 1.17 1.11 1.07 1.03 1.03 1.01 0.99 0.97 0.97 0.97 0.99 0.99 0.97 0.95 0.95 0.95 0.95 0.95 0.91 0.89 0.87 0.87
0.69 0.71 0.71 0.73 0.73 0.73 0.75 0.75 0.79 0.81 0.83 0.87 0.89 0.91 0.93 0.93 0.95 0.97 0.99 1.01 1.07 1.11 1.15 1.19 1.17 1.15 1.13 1.09 1.07 1.05 1.05 1.05 1.07 1.07 1.07 1.07 1.07 1.09 1.09 1.11 1.13 1.15 1.15 1.15 1.17 1.19 1.19 1.15 1.11 1.07 1.05 1.03 1.01 0.99 0.97 0.95 0.95 0.95 0.95 0.95 0.93 0.93 0.93 0.93 0.91 0.89 0.87 0.85 0.81
0.69 0.69 0.69 0.69 0.71 0.71 0.73 0.73 0.77 0.79 0.83 0.85 0.87 0.89 0.91 0.93 0.95 0.97 0.99 1.01 1.05 1.07 1.09 1.09 1.09 1.09 1.09 1.09 1.07 1.07 1.07 1.07 1.07 1.07 1.07 1.05 1.07 1.07 1.09 1.13 1.13 1.15 1.15 1.17 1.19 1.19 1.19 1.17 1.11 1.09 1.05 1.03 1.03 1.01 0.99 0.97 0.95 0.93 0.93 0.93 0.93 0.91 0.91 0.89 0.87 0.85 0.83 0.83 0.79
0.71 0.71 0.71 0.69 0.69 0.69 0.71 0.73 0.77 0.79 0.83 0.85 0.87 0.89 0.91 0.93 0.93 0.95 0.97 0.99 1.03 1.07 1.07 1.07 1.07 1.05 1.05 1.07 1.07 1.07 1.07 1.07 1.07 1.07 1.05 1.05 1.07 1.07 1.09 1.11 1.13 1.15 1.15 1.17 1.19 1.19 1.17 1.17 1.13 1.09 1.07 1.05 1.05 1.03 1.01 0.99 0.97 0.95 0.93 0.93 0.91 0.89 0.87 0.85 0.85 0.83 0.81 0.79 0.77
0.73 0.73 0.71 0.71 0.69 0.69 0.69 0.71 0.77 0.81 0.83 0.85 0.87 0.87 0.89 0.89 0.91 0.95 0.97 0.99 1.03 1.05 1.05 1.03 1.03 1.03 1.03 1.03 1.05 1.05 1.05 1.07 1.07 1.05 1.05 1.05 1.07 1.07 1.09 1.11 1.13 1.17 1.19 1.19 1.21 1.19 1.17 1.15 1.13 1.11 1.09 1.07 1.07 1.05 1.03 1.01 0.99 0.97 0.95 0.93 0.89 0.87 0.85 0.83 0.81 0.81 0.79 0.77 0.73
0.73 0.73 0.73 0.71 0.69 0.69 0.71 0.73 0.77 0.81 0.83 0.83 0.85 0.85 0.87 0.89 0.91 0.93 0.97 0.99 1.01 1.01 1.01 1.01 1.01 1.01 1.01 1.01 1.01 1.03 1.03 1.03 1.05 1.05 1.05 1.05 1.05 1.05 1.07 1.11 1.15 1.17 1.19 1.21 1.19 1.19 1.17 1.17 1.15 1.13 1.11 1.11 1.09 1.07 1.05 1.03 1.01 0.97 0.93 0.91 0.89 0.85 0.81 0.81 0.79 0.79 0.77 0.75 0.71
0.75 0.75 0.73 0.71 0.71 0.71 0.73 0.75 0.79 0.81 0.81 0.83 0.83 0.85 0.87 0.89 0.91 0.93 0.95 0.99 1.01 1.01 1.01 1.01 1.01 1.01 1.01 1.01 1.01 1.01 1.01 1.01 1.03 1.03 1.05 1.05 1.05 1.07 1.11 1.15 1.17 1.19 1.19 1.15 1.17 1.19 1.19 1.17 1.17 1.15 1.13 1.11 1.09 1.07 1.05 1.03 0.99 0.95 0.91 0.87 0.85 0.83 0.81 0.79 0.79 0.77 0.75 0.73 0.71
0.75 0.75 0.75 0.73 0.73 0.73 0.75 0.75 0.79 0.81 0.81 0.81 0.83 0.85 0.87 0.89 0.93 0.95 0.97 0.99 1.01 1.01 1.01 1.01 1.01 1.01 1.01 1.03 1.03 1.01 1.01 1.01 1.03 1.03 1.05 1.05 1.09 1.13 1.15 1.17 1.19 1.17 1.17 1.13 1.17 1.17 1.19 1.17 1.17 1.15 1.13 1.09 1.07 1.05 1.03 1.01 0.97 0.93 0.87 0.85 0.83 0.81 0.81 0.79 0.79 0.77 0.73 0.71 0.69
0.77 0.77 0.75 0.75 0.75 0.75 0.75 0.77 0.79 0.81 0.81 0.83 0.85 0.87 0.89 0.93 0.95 0.99 1.01 1.03 1.03 1.03 1.01 1.01 1.01 1.03 1.03 1.03 1.03 1.03 1.03 1.05 1.05 1.05 1.07 1.09 1.15 1.15 1.17 1.17 1.17 1.13 1.11 1.13 1.15 1.17 1.17 1.17 1.15 1.15 1.13 1.09 1.07 1.03 1.01 0.97 0.91 0.87 0.85 0.83 0.81 0.79 0.79 0.77 0.77 0.75 0.73 0.69 0.69
0.79 0.79 0.77 0.77 0.77 0.77 0.77 0.79 0.81 0.81 0.83 0.85 0.87 0.89 0.93 0.95 0.99 1.01 1.05 1.05 1.05 1.03 1.03 1.03 1.03 1.03 1.05 1.05 1.05 1.07 1.07 1.07 1.07 1.09 1.11 1.13 1.15 1.15 1.15 1.13 1.11 1.09 1.09 1.13 1.15 1.17 1.17 1.15 1.15 1.13 1.11 1.07 1.05 1.01 0.95 0.91 0.87 0.83 0.81 0.79 0.79 0.77 0.77 0.75 0.75 0.73 0.71 0.69 0.69
0.81 0.81 0.81 0.79 0.79 0.79 0.79 0.79 0.79 0.81 0.83 0.85 0.89 0.91 0.95 0.97 0.99 1.01 1.03 1.05 1.05 1.03 1.03 1.03 1.05 1.07 1.07 1.09 1.09 1.11 1.11 1.11 1.13 1.13 1.15 1.17 1.17 1.15 1.13 1.11 1.05 1.05 1.09 1.11 1.13 1.15 1.15 1.13 1.13 1.11 1.07 1.03 0.99 0.97 0.93 0.85 0.81 0.79 0.77 0.77 0.75 0.75 0.73 0.73 0.73 0.71 0.71 0.69 0.69
0.83 0.81 0.81 0.81 0.81 0.81 0.81 0.81 0.81 0.83 0.83 0.85 0.89 0.91 0.95 0.97 0.99 1.01 1.03 1.05 1.05 1.05 1.05 1.07 1.09 1.11 1.13 1.13 1.13 1.13 1.15 1.17 1.17 1.17 1.19 1.17 1.17 1.15 1.13 1.09 1.03 1.03 1.07 1.09 1.09 1.09 1.09 1.09 1.07 1.05 1.03 0.99 0.95 0.93 0.89 0.83 0.79 0.77 0.75 0.73 0.71 0.71 0.71 0.71 0.71 0.69 0.69 0.69 0.69
0.83 0.81 0.79 0.79 0.79 0.79 0.81 0.83 0.83 0.85 0.87 0.89 0.91 0.93 0.95 0.99 1.01 1.05 1.07 1.09 1.09 1.09 1.09 1.09 1.11 1.11 1.11 1.11 1.11 1.11 1.13 1.17 1.19 1.19 1.19 1.17 1.17 1.15 1.09 1.05 1.01 1.01 1.03 1.03 1.03 1.01 1.01 1.01 0.99 0.99 0.97 0.95 0.93 0.89 0.85 0.79 0.77 0.73 0.71 0.69 0.69 0.67 0.67 0.69 0.69 0.67 0.67 0.67 0.67
0.85 0.83 0.79 0.77 0.77 0.77 0.79 0.81 0.83 0.85 0.87 0.89 0.91 0.93 0.97 0.99 1.03 1.05 1.07 1.07 1.07 1.07 1.07 1.07 1.07 1.07 1.05 1.05 1.03 1.05 1.07 1.11 1.13 1.15 1.15 1.17 1.11 1.05 1.01 0.99 0.97 0.97 0.97 0.97 0.97 0.97 0.97 0.97 0.95 0.95 0.93 0.91 0.89 0.83 0.79 0.75 0.71 0.69 0.67 0.67 0.67 0.65 0.65 0.67 0.67 0.67 0.65 0.67 0.67
Wind_Speed
20 20 20 20 20 20 20 20 21 21 21 22 22 23 23 23 24 24 24 24 25 25 25 25 25 25 25 25 26 26 26 26 26 26 26 26 27 27 27 27 27 27 27 27 27 28 28 28 27 27 27 27 27 27 27 27 27 28 28 28 28 28 28 28 28 28 28 28 28
20 20 20 20 20 20 20 20 21 21 21 22 22 22 23 23 23 24 24 24 24 24 24 24 25 25 25 25 25 25 26 26 26 26 26 27 27 27 27 27 28 28 28 28 28 28 28 28 28 28 28 27 27 28 28 28 28 29 29 29 29 29 29 29 29 29 29 29 29
20 20 20 20 20 21 21 21 21 22 22 22 22 23 23 23 23 24 24 24 24 24 24 24 24 24 25 25 25 25 25 26 26 26 27 27 27 28 28 28 28 28 28 28 29 29 29 29 28 28 28 28 28 29 29 29 29 30 30 30 30 30 30 30 30 30 29 30 30
20 20 20 20 21 21 22 22 22 22 23 23 23 23 23 23 23 23 24 24 24 24 24 24 24 24 24 25 25 25 25 26 26 27 27 28 28 28 28 28 28 29 29 29 29 29 29 29 29 29 29 29 29 30 30 30 30 30 30 30 30 30 31 30 30 30 30 30 31
19 20 20 20 21 21 22 22 22 22 23 23 23 23 23 23 23 23 23 23 24 24 24 24 24 24 24 25 25 25 26 26 27 27 28 28 28 29 29 29 29 29 29 29 30 30 30 30 30 29 29 29 30 30 31 31 31 31 31 31 31 31 31 31 31 31 31 31 31
19 20 20 20 21 21 21 21 22 22 22 22 23 23 23 23 23 24 24 24 24 24 24 25 25 25 25 25 26 26 26 27 27 28 28 29 29 29 29 29 29 29 30 30 30 30 30 30 30 30 30 30 30 31 31 31 31 31 31 31 31 31 31 31 31 31 31 32 31
20 20 20 20 20 21 21 21 22 22 22 22 23 23 24 24 24 24 24 24 24 24 25 25 25 26 26 26 26 27 27 27 28 28 29 29 29 30 30 30 30 30 30 30 30 30 30 30 30 30 30 30 31 31 31 31 31 31 31 32 32 32 32 32 32 32 32 32 31
20 20 20 20 21 21 21 22 22 22 22 23 23 24 24 24 25 25 25 25 25 25 25 25 26 26 27 27 27 27 28 28 28 29 29 29 30 30 30 30 30 30 30 31 31 31 31 31 31 31 31 31 31 31 31 31 32 32 32 32 33 33 33 33 33 32 32 32 31
20 20 20 21 21 21 21 22 22 22 23 23 24 24 25 25 25 25 25 25 26 26 26 26 27 27 28 28 28 28 28 29 29 29 29 30 30 30 30 30 30 31 31 31 31 31 31 31 32 32 32 32 32 32 32 32 32 32 33 33 33 34 34 34 33 33 32 32 31
20 20 21 21 21 21 22 22 22 23 23 24 24 25 25 25 26 26 26 26 26 26 27 27 28 28 28 29 29 29 29 29 29 30 30 30 30 30 30 30 30 30 31 31 31 31 31 32 32 33 33 33 33 33 33 33 33 33 33 33 34 34 34 34 34 33 33 32 31
21 21 21 21 22 22 22 22 23 23 24 24 25 25 25 26 26 27 27 27 27 27 28 28 28 29 29 29 30 30 30 30 30 30 30 30 31 31 31 31 31 31 31 31 31 32 32 33 33 34 34 34 34 34 34 34 34 34 33 33 33 34 34 34 34 34 34 33 32
22 22 22 22 22 22 22 23 23 23 24 25 25 25 26 26 27 27 27 27 28 28 29 29 29 30 30 30 30 30 31 31 31 31 31 31 31 31 31 31 31 31 32 32 32 32 33 33 34 34 34 34 34 35 35 35 35 35 34 34 33 33 34 34 34 34 34 34 33
22 22 22 22 22 22 23 23 23 24 24 25 25 26 26 26 27 27 28 28 29 29 29 29 30 30 31 31 31 31 31 31 32 32 32 32 32 32 32 32 32 33 33 33 33 33 34 34 34 34 35 35 35 35 35 36 36 36 35 35 34 34 34 34 34 34 34 34 34
24 23 23 23 23 23 23 23 24 24 25 25 26 26 26 26 27 27 28 28 29 29 29 30 30 30 31 31 31 31 32 32 32 32 32 32 32 33 33 33 33 34 34 34 34 34 34 34 35 35 36 36 36 36 36 36 36 36 36 36 36 35 35 34 34 34 34 34 34
25 26 25 25 25 25 25 25 25 25 25 26 26 26 26 27 27 27 28 28 29 29 29 29 30 30 30 31 31 31 31 32 32 32 32 32 33 33 33 34 34 34 34 35 35 35 35 35 36 36 36 37 37 36 36 36 36 36 37 37 37 36 36 35 34 34 34 34 33
26 27 27 27 27 27 27 27 27 26 27 27 27 27 27 27 27 27 28 28 28 28 29 29 29 30 30 30 30 30 31 31 31 31 31 32 32 32 33 33 33 34 34 34 35 35 35 36 36 36 37 37 37 37 37 37 37 37 37 37 37 37 36 35 35 34 34 34 33
26 26 27 28 28 29 29 29 29 29 29 29 29 29 29 29 29 28 28 28 28 28 28 29 29 29 29 29 29 29 29 30 30 30 30 30 31 31 32 32 32 33 33 33 34 34 35 35 36 36 37 37 37 37 37 37 38 38 37 37 37 37 36 36 35 34 33 33 33
28 28 27 28 28 29 30 30 31 31 31 31 31 31 31 31 30 30 30 29 29 29 29 29 29 29 29 29 29 29 29 29 29 30 30 30 31 31 32 32 32 33 33 33 34 34 35 35 36 36 37 37 37 37 37 37 37 37 37 37 37 37 36 36 34 33 33 33 33
30 30 29 29 30 29 29 29 29 29 30 30 30 30 30 31 31 31 31 31 30 30 31 31 31 30 30 30 30 30 30 30 30 30 31 31 31 32 32 32 33 33 34 34 34 35 35 35 36 36 37 37 37 37 37 37 37 37 37 37 37 37 36 35 34 33 33 33 33
31 31 31 31 31 31 30 29 28 28 27 27 27 27 27 27 28 29 30 30 31 31 32 32 32 32 32 32 31 31 31 31 31 31 32 32 32 32 33 33 33 34 34 34 35 35 35 35 36 37 37 38 38 37 37 37 37 38 38 38 38 37 36 35 34 33 33 33 34
32 32 32 32 32 33 32 32 31 30 29 28 27 27 27 27 27 27 28 28 29 30 31 32 32 33 33 33 33 33 33 32 32 32 33 33 33 33 33 33 33 34 34 34 34 35 35 35 36 37 38 39 39 39 38 38 37 38 38 38 37 37 36 36 35 35 35 34 34
32 32 32 33 33 33 33 33 32 32 31 30 30 29 29 29 28 28 28 27 27 28 29 30 31 32 33 34 34 34 34 34 34 34 33 33 33 33 33 33 33 33 34 34 34 34 35 36 36 37 39 40 40 40 41 40 39 38 37 36 36 36 36 37 37 36 35 34 32
31 32 32 33 33 33 33 33 33 33 32 32 31 31 30 30 30 30 29 28 28 28 28 29 30 31 33 34 35 35 35 35 35 34 34 33 33 33 33 33 33 33 33 33 34 34 35 35 36 37 38 40 41 42 43 43 42 40 37 35 34 34 34 34 34 34 33 32 32
30 31 31 31 32 33 33 34 34 34 34 33 33 32 31 31 31 31 31 30 29 29 29 29 30 31 32 33 33 34 34 35 35 35 34 33 33 32 32 32 32 32 32 33 33 33 33 34 36 37 39 40 40 41 43 44 44 42 39 36 34 33 31 31 31 31 32 34 35
29 30 30 30 31 32 32 33 33 34 34 34 33 33 32 32 32 32 32 32 31 30 30 30 30 30 30 30 30 31 32 33 34 34 33 33 32 31 31 31 31 31 31 31 31 32 33 35 36 37 37 36 36 36 37 39 40 40 39 36 34 32 31 30 31 32 34 35 36
29 29 29 30 30 31 31 32 32 33 33 33 33 33 33 33 33 32 32 32 32 32 31 30 29 28 28 27 28 29 30 31 32 32 32 31 31 31 31 31 31 30 31 31 32 33 34 34 34 34 33 31 30 28 28 28 31 33 34 34 33 32 31 32 33 34 36 37 37
28 29 29 30 30 30 31 31 31 31 31 32 32 33 33 33 33 33 33 33 33 32 31 30 29 28 27 26 27 28 29 30 30 31 31 31 31 31 31 31 31 32 32 33 34 34 33 32 31 31 29 27 25 23 21 21 23 26 29 30 31 31 32 33 34 35 36 37 37
27 28 29 29 30 30 31 30 30 30 30 30 31 31 32 32 33 33 33 32 32 32 32 32 31 29 27 27 27 28 29 29 30 30 31 31 32 32 32 32 32 33 34 34 34 34 33 31 30 28 27 26 25 24 23 23 23 25 27 29 30 31 32 33 34 35 35 35 35
27 27 28 29 29 30 30 30 30 30 30 30 30 30 31 31 32 32 32 32 32 32 32 32 32 31 30 29 29 29 29 30 30 30 31 31 32 32 32 32 32 33 34 34 34 33 32 30 28 28 27 27 27 26 26 26 26 27 28 28 29 30 31 32 33 34 34 34 34
26 26 27 28 28 29 29 30 30 30 29 29 29 29 29 30 30 31 31 31 31 31 31 31 31 31 31 31 30 30 29 29 30 30 30 30 31 31 31 32 33 33 33 33 33 32 31 29 28 28 28 28 28 27 26 26 26 26 27 27 28 29 31 32 33 33 33 33 33
25 25 26 27 27 28 28 29 29 29 28 28 28 28 28 28 29 29 29 29 29 29 30 30 30 30 30 30 30 29 29 29 29 29 29 30 30 30 31 32 33 33 33 33 33 32 32 31 30 29 29 28 28 27 26 26 26 26 27 27 29 30 31 32 32 32 33 33 33
25 25 25 26 27 27 28 28 28 28 28 28 27 27 27 27 28 28 28 28 28 28 28 28 29 29 29 29 29 29 29 29 29 29 29 30 30 30 31 32 33 34 34 33 33 32 32 31 29 28 28 28 28 27 27 27 27 27 28 29 30 31 31 32 32 32 33 33 33
24 24 25 26 26 27 27 27 27 27 27 27 27 27 27 27 27 27 27 27 27 27 27 28 28 29 29 29 29 29 29 29 29 29 30 30 30 31 31 32 33 33 32 31 30 29 28 28 27 27 28 28 28 28 28 28 28 28 29 30 30 31 32 32 32 32 33 33 33
24 24 24 25 25 25 25 25 25 25 26 26 27 27 27 27 27 27 27 27 26 27 27 27 28 28 29 29 29 29 29 29 29 29 30 30 31 31 31 31 31 30 30 29 29 27 26 26 27 28 28 29 29 29 29 29 29 29 30 30 31 32 32 32 32 33 33 33 33
23 23 23 24 24 24 24 24 24 24 25 25 26 26 27 27 27 27 26 26 26 26 27 27 28 28 29 29 29 29 29 29 29 30 30 31 31 30 30 29 30 29 29 29 29 28 28 28 28 29 29 29 29 30 30 30 30 30 30 31 32 32 32 32 33 33 33 33 34
23 23 22 22 22 22 22 22 23 23 24 24 25 26 26 26 26 26 26 26 26 26 26 26 27 28 28 29 29 29 29 29 29 30 30 31 30 29 29 29 29 29 29 29 30 30 29 29 29 29 29 29 29 29 30 30 30 31 31 32 32 32 32 33 33 33 34 34 34
21 21 21 21 21 21 21 21 22 22 23 23 24 24 25 25 25 25 25 25 25 25 26 26 27 27 28 28 29 29 30 30 30 30 30 29 28 28 29 29 29 29 29 30 30 30 30 29 29 29 29 29 29 29 30 30 31 31 32 32 32 33 33 33 33 34 34 34 34
20 20 20 20 20 20 21 21 22 22 22 23 23 24 24 24 24 24 24 25 24 25 25 26 26 27 28 28 29 29 30 31 31 32 31 29 29 29 29 29 29 29 29 30 30 30 29 29 28 28 28 28 29 29 30 30 31 32 32 32 33 33 33 33 33 34 34 34 34
17 18 18 18 19 20 20 21 22 22 23 23 23 23 23 23 24 24 24 24 24 24 25 25 26 26 27 27 27 28 30 32 33 33 32 31 31 30 30 29 29 29 29 29 29 29 29 28 28 27 28 28 29 30 31 31 32 32 32 32 32 32 33 33 33 34 34 34 34
16 16 16 17 18 18 19 20 21 22 22 22 22 23 23 23 23 24 24 24 24 24 24 25 25 26 26 26 26 26 28 31 31 31 31 30 30 30 29 29 29 29 29 29 29 29 29 28 28 28 28 29 30 31 31 32 32 32 32 32 32 32 33 33 33 34 34 34 34
15 15 15 16 16 17 18 19 19 20 21 21 21 22 22 22 22 23 23 23 24 24 24 24 25 25 25 25 25 25 27 29 29 29 28 27 27 28 28 28 28 28 28 29 29 29 29 29 29 29 30 31 31 32 32 32 32 32 31 31 32 32 32 33 33 33 34 34 34
Wind_Direction
193 194 195 196 197 198 199 200 201 202 203 203 204 205 206 208 209 211 213 214 216 217 219 220 221 222 223 224 224 225 226 227 228 229 231 232 233 234 235 236 237 238 239 240 241 242 243 244 245 247 248 250 251 252 253 254 255 256 258 259 261 262 263 264 266 268 270 272 275
197 198 199 199 200 201 202 203 204 205 206 207 208 209 211 212 214 215 217 218 219 221 222 223 224 224 225 225 226 227 228 229 230 231 232 233 234 235 236 237 238 239 240 241 242 243 244 245 246 247 249 250 251 252 253 254 255 256 257 258 260 261 263 264 266 268 270 272 274
202 202 203 203 204 204 205 206 207 208 209 211 212 214 215 217 218 219 221 221 222 223 224 225 225 226 226 227 228 229 230 231 232 233 234 235 235 236 237 239 239 240 241 242 243 244 245 245 246 248 249 250 251 253 254 255 256 256 257 258 259 261 262 264 266 268 270 272 274
206 207 207 207 208 208 209 209 210 211 213 215 216 218 219 221 222 223 223 224 224 225 225 226 226 227 227 228 229 230 231 232 233 234 234 235 236 237 238 239 240 241 242 242 243 244 245 246 247 248 250 251 252 253 255 256 256 257 258 259 260 261 262 264 266 268 270 271 273
211 211 212 212 213 213 214 214 215 216 217 219 220 222 223 224 224 225 225 225 226 226 227 227 228 228 229 230 231 231 232 233 234 235 235 236 237 238 239 240 241 242 243 243 244 245 245 246 248 249 250 251 253 255 256 257 257 258 259 260 260 261 262 264 265 267 269 271 272
214 215 216 217 217 218 219 219 220 221 221 222 223 224 225 225 226 226 226 227 227 228 228 229 230 231 231 232 232 233 234 235 235 236 237 238 239 239 240 241 242 243 244 244 245 245 246 247 248 250 251 252 254 255 256 257 258 259 260 260 261 262 263 264 265 267 268 270 272
217 218 219 220 221 221 222 223 224 224 225 225 225 225 226 226 227 227 228 229 229 230 231 231 232 233 233 234 235 235 236 237 237 238 239 240 240 241 242 243 243 244 245 246 246 247 247 248 249 250 251 253 254 255 256 257 258 259 260 261 262 262 263 264 265 266 267 269 270
219 220 221 222 223 224 224 225 226 226 227 227 227 227 227 228 228 229 230 231 232 232 233 233 234 234 235 236 237 237 238 239 239 240 241 241 242 243 243 244 245 246 247 247 248 248 249 249 250 251 252 253 255 256 256 257 258 259 260 261 262 263 263 264 265 266 267 268 270
220 221 222 223 224 225 226 226 227 228 228 228 229 229 230 230 231 232 232 233 234 234 235 235 236 236 237 237 238 239 240 241 241 242 243 243 244 244 245 246 247 247 248 249 249 250 250 251 252 252 253 254 255 256 257 257 258 259 260 262 263 263 264 264 265 266 267 269 270
222 223 223 224 225 226 226 227 228 229 230 230 231 232 232 233 234 234 235 236 236 237 237 237 237 238 238 239 240 240 241 242 243 244 244 245 245 246 247 248 248 249 250 251 251 251 252 252 253 254 254 255 256 256 257 258 259 260 261 262 263 264 264 266 266 267 268 269 270
224 225 225 226 226 227 227 228 229 230 231 232 233 234 235 235 236 236 237 238 238 238 238 239 239 239 240 240 241 242 243 244 244 245 245 246 247 248 248 249 250 251 251 252 252 253 253 253 254 254 255 256 257 257 258 258 259 260 261 262 263 263 265 266 267 268 268 269 269
227 228 228 229 229 229 229 230 230 231 232 233 234 235 236 237 237 238 239 239 240 240 240 240 240 241 241 242 242 243 244 245 245 246 247 247 248 249 250 250 251 252 252 253 253 254 254 254 255 255 256 257 258 258 258 258 258 259 260 261 262 263 264 265 267 268 269 269 269
231 231 232 232 232 232 232 232 232 233 234 235 235 236 237 238 239 239 240 241 241 242 242 242 242 242 243 243 244 244 245 246 247 247 248 249 250 250 251 252 252 253 253 254 254 255 256 256 256 257 257 257 258 258 258 258 258 259 260 261 261 262 263 265 267 268 269 270 270
235 235 236 236 235 235 235 235 235 236 236 236 237 238 239 240 240 241 241 242 243 243 243 243 244 244 244 245 245 246 247 247 248 249 250 250 251 252 253 253 254 254 255 255 256 256 257 257 258 258 258 257 257 258 258 259 259 260 261 261 262 262 264 265 267 268 269 270 271
239 239 239 239 239 239 239 239 239 239 239 239 240 240 241 242 242 243 243 244 244 244 244 245 245 245 246 246 247 247 248 249 249 250 251 252 253 253 254 254 255 255 255 256 256 257 257 258 258 259 259 258 258 259 259 260 261 261 262 262 263 264 265 266 267 268 269 269 271
238 240 241 241 242 242 242 242 243 243 243 243 243 243 243 244 245 245 245 245 246 246 246 246 246 246 247 247 247 248 249 250 251 252 252 253 254 255 255 256 256 256 256 256 257 258 258 259 259 259 259 260 260 260 261 262 262 263 263 264 265 266 266 266 266 267 268 269 270
236 238 240 241 242 243 244 245 245 246 246 246 246 246 246 247 247 247 247 248 248 248 248 248 248 248 248 248 249 249 250 251 252 253 254 255 256 256 257 257 257 257 257 258 258 259 259 260 260 260 260 260 261 261 262 263 263 264 264 265 266 266 267 267 266 266 266 267 268
237 238 238 239 240 242 244 246 247 248 248 248 249 249 250 250 250 250 250 250 250 251 251 251 251 251 250 250 251 251 251 252 254 255 256 257 258 258 258 258 258 258 259 259 260 260 261 261 261 262 262 262 262 262 262 263 264 265 265 266 266 267 267 267 266 265 265 266 267
240 240 240 240 241 242 244 246 248 249 250 250 251 251 252 252 252 252 252 252 252 253 253 254 254 254 253 252 252 253 253 254 255 256 258 259 259 259 259 259 259 259 260 261 261 262 262 263 263 263 263 262 262 262 262 263 264 265 266 266 266 266 265 265 265 265 265 266 267
243 243 243 243 243 244 245 247 249 250 250 250 250 251 251 252 252 252 252 252 253 253 254 254 255 255 255 254 253 253 254 255 256 257 259 259 260 260 259 259 260 260 261 261 262 262 263 263 264 264 263 263 263 262 262 263 264 265 265 266 266 265 264 263 264 265 266 267 269
245 245 245 245 245 245 246 247 249 250 251 251 252 252 252 253 253 252 251 251 252 252 253 253 254 254 254 254 253 253 254 255 256 257 258 259 259 260 259 260 260 260 261 261 262 262 263 263 264 264 265 265 263 261 261 261 262 263 265 267 267 266 265 264 265 266 268 270 272
247 247 247 247 247 247 247 248 249 250 252 253 254 254 255 255 254 254 253 252 252 252 252 252 253 254 255 255 254 253 253 254 255 257 258 259 259 260 260 260 260 260 261 261 262 262 263 263 264 266 268 269 266 263 260 259 259 261 264 267 268 268 266 265 265 266 268 270 272
247 248 248 249 249 249 249 249 250 250 251 252 254 255 256 256 255 255 254 254 253 253 253 253 255 257 258 258 256 254 253 253 255 256 258 258 259 259 259 260 260 260 261 262 263 263 265 266 269 271 273 274 272 268 263 260 257 258 261 266 268 269 267 266 265 264 264 267 269
245 247 248 249 250 250 251 251 251 251 251 252 253 254 255 256 255 255 254 254 254 254 255 258 259 260 261 260 258 255 253 253 254 256 257 258 258 259 259 260 260 261 262 264 265 267 269 272 275 278 279 278 277 273 267 262 258 256 257 261 266 268 267 266 264 264 265 267 270
244 245 246 248 249 250 251 252 252 252 252 252 253 253 254 254 254 254 253 253 253 254 257 260 262 262 261 259 257 254 253 253 254 255 257 258 258 259 259 260 261 263 265 267 267 268 271 274 278 281 281 280 279 276 271 264 258 254 254 258 263 266 266 265 265 266 269 271 273
244 244 245 246 248 249 250 251 252 253 253 254 253 253 253 253 253 253 252 252 252 254 257 260 261 262 261 258 256 254 253 253 254 255 257 258 259 259 261 262 264 266 267 268 268 269 271 274 278 280 281 280 280 277 273 267 259 254 254 257 261 264 265 266 268 270 273 274 275
245 245 245 246 246 247 248 249 251 252 253 254 254 254 254 253 253 253 252 252 253 255 257 258 260 261 260 258 256 254 253 254 255 257 258 260 260 261 262 264 266 267 268 268 269 270 272 275 277 279 279 278 278 277 274 269 261 257 256 259 262 265 267 269 272 273 275 276 276
246 246 246 246 246 246 247 248 249 250 251 252 253 253 254 254 254 253 253 253 254 255 256 257 259 260 260 259 257 255 255 256 258 259 260 261 261 262 264 266 268 269 270 270 271 272 273 275 276 276 275 275 275 274 273 270 267 264 264 265 267 269 270 272 273 275 276 277 277
246 246 246 246 246 247 247 247 248 248 248 249 250 252 253 254 254 254 254 255 256 256 257 258 259 261 261 261 260 259 258 259 260 261 262 262 263 264 266 268 269 271 272 274 274 274 273 273 273 273 273 274 274 274 273 272 270 270 270 270 270 271 271 272 274 276 277 277 278
247 247 247 246 247 247 247 247 247 247 247 248 249 250 252 253 253 254 254 255 257 258 259 260 261 262 262 262 262 262 261 261 262 263 263 263 264 266 268 269 270 272 274 275 276 274 271 270 271 272 274 274 274 274 273 272 271 271 270 270 270 271 272 274 276 277 277 278 278
248 247 247 247 247 248 248 247 247 247 247 248 249 250 250 251 251 252 254 255 257 260 261 261 261 262 262 263 263 263 263 263 263 264 264 264 265 267 269 271 273 275 277 278 278 276 273 270 269 271 274 275 274 273 272 271 270 270 270 270 270 272 274 276 277 277 278 278 278
248 248 248 248 248 248 249 248 248 248 248 248 249 249 250 250 250 251 253 255 257 259 260 260 260 260 261 262 263 263 263 263 264 264 264 264 265 266 269 272 275 278 280 281 282 279 275 269 268 270 273 275 273 271 269 269 269 269 269 270 272 274 276 277 278 278 278 278 279
250 249 249 249 249 249 250 249 249 249 249 249 249 249 249 249 250 251 252 254 256 257 258 259 259 259 260 261 261 262 263 263 263 263 263 264 265 267 270 273 276 279 282 284 285 282 276 268 267 269 272 273 272 270 269 268 269 269 270 272 274 276 277 278 278 279 279 279 279
251 251 250 250 250 251 251 251 251 250 250 249 248 248 248 248 249 249 251 253 255 256 257 258 258 259 259 260 261 261 262 263 263 263 263 264 265 267 270 274 278 281 283 284 285 283 278 272 271 272 272 272 271 271 270 269 269 270 272 274 276 277 278 278 279 279 280 280 280
252 252 252 252 252 252 252 252 251 251 250 249 249 248 248 248 249 250 251 253 255 257 258 259 259 259 260 261 261 262 262 263 263 263 263 263 265 268 271 276 280 282 283 283 283 282 280 277 276 275 274 274 273 272 271 270 270 271 273 274 276 277 278 279 279 280 281 281 281
254 253 253 253 253 253 252 252 252 251 251 250 250 250 250 250 251 252 253 255 257 257 258 259 259 260 260 262 263 263 263 263 264 264 264 263 265 269 273 276 280 281 282 281 282 282 281 279 278 276 275 274 274 273 272 271 272 273 274 275 276 277 278 279 280 281 282 283 283
256 255 254 253 253 253 252 252 252 252 251 252 252 252 252 252 253 254 256 257 258 258 259 260 260 261 262 263 264 264 264 263 263 263 263 264 267 271 274 277 279 280 280 280 281 281 281 279 277 276 275 274 273 272 272 272 273 274 275 276 277 278 280 281 282 282 283 284 284
257 256 254 253 253 253 253 252 252 252 252 253 254 254 254 254 255 256 257 258 259 259 260 261 262 262 263 264 265 265 264 263 262 262 263 266 270 274 276 278 278 278 279 280 281 282 281 279 277 275 273 272 272 272 272 273 274 275 276 277 279 280 281 282 283 284 284 285 285
258 257 255 254 254 253 253 253 252 252 253 254 255 255 255 255 256 257 257 258 259 260 260 261 262 263 264 265 267 267 266 264 263 264 266 269 272 275 277 277 276 277 278 280 281 281 281 280 277 274 273 272 272 273 274 276 277 278 278 279 280 281 283 284 284 285 286 286 287
260 259 257 256 255 254 254 253 254 254 254 255 255 255 255 255 256 256 256 257 258 258 259 260 261 263 265 266 268 270 269 266 267 268 271 272 273 274 275 275 275 276 278 279 280 280 279 278 276 275 274 274 275 276 277 278 279 280 280 281 281 282 283 285 285 286 287 287 288
261 260 259 258 257 256 255 255 256 257 257 257 256 257 257 257 256 256 255 256 256 257 258 259 261 263 265 267 268 270 271 270 271 273 274 275 274 274 274 275 275 276 278 278 278 278 278 277 276 275 275 276 277 278 279 279 280 280 281 281 282 283 284 285 286 287 287 288 288